Time,TemperatureF,DewpointF,PressureIn,WindDirection,WindDirectionDegrees,WindSpeedMPH,WindSpeedGustMPH,Humidity,HourlyPrecipIn,Conditions,Clouds,dailyrainin,SoftwareType,DateUTC
2013-01-02 00:03:00,19.0,12.0,30.02,SSW,213,1.0,9.0,74,0.00,,,0.00,,2013-01-02 05:03:00,
2013-01-02 00:12:00,19.0,12.0,30.02,SSW,213,1.0,9.0,74,0.00,,,0.00,,2013-01-02 05:12:00,
2013-01-02 00:22:00,20.0,13.0,30.01,SW,226,3.0,7.0,74,0.00,,,0.00,,2013-01-02 05:22:00,
2013-01-02 00:33:00,20.0,13.0,30.01,WSW,257,0.0,5.0,75,0.00,,,0.00,,2013-01-02 05:33:00,
2013-01-02 00:42:00,20.0,13.0,30.01,WSW,257,0.0,5.0,75,0.00,,,0.00,,2013-01-02 05:42:00,
2013-01-02 00:53:00,20.0,14.0,30.01,SW,235,2.0,7.0,76,0.00,,,0.00,,2013-01-02 05:53:00,
2013-01-02 01:02:00,20.0,13.0,30.00,WSW,238,1.0,6.0,75,0.00,,,0.00,,2013-01-02 06:02:00,
2013-01-02 01:12:00,20.0,13.0,30.00,WSW,238,1.0,6.0,75,0.00,,,0.00,,2013-01-02 06:12:00,
2013-01-02 01:22:00,20.0,14.0,30.00,SSW,204,4.0,7.0,76,0.00,,,0.00,,2013-01-02 06:22:00,
2013-01-02 01:32:00,20.0,14.0,30.00,WSW,240,5.0,7.0,77,0.00,,,0.00,,2013-01-02 06:32:00,
2013-01-02 01:42:00,20.0,14.0,30.00,WSW,240,5.0,7.0,77,0.00,,,0.00,,2013-01-02 06:42:00,
2013-01-02 01:53:00,20.0,14.0,30.00,WSW,242,2.0,5.0,78,0.00,,,0.00,,2013-01-02 06:53:00,
2013-01-02 02:02:00,21.0,15.0,29.99,WSW,257,3.0,6.0,78,0.00,,,0.00,,2013-01-02 07:02:00,
2013-01-02 02:12:00,21.0,15.0,29.99,WSW,257,3.0,6.0,78,0.00,,,0.00,,2013-01-02 07:12:00,
2013-01-02 02:22:00,21.0,15.0,30.00,WSW,258,4.0,7.0,77,0.00,,,0.00,,2013-01-02 07:22:00,
2013-01-02 02:32:00,21.0,15.0,30.00,West,267,1.0,7.0,76,0.00,,,0.00,,2013-01-02 07:32:00,
2013-01-02 02:42:00,21.0,15.0,30.00,West,267,1.0,7.0,76,0.00,,,0.00,,2013-01-02 07:42:00,
2013-01-02 02:52:00,22.0,15.0,30.00,WSW,250,1.0,8.0,75,0.00,,,0.00,,2013-01-02 07:52:00,
2013-01-02 03:02:00,22.0,15.0,30.00,SW,216,2.0,7.0,74,0.00,,,0.00,,2013-01-02 08:02:00,
2013-01-02 03:12:00,22.0,15.0,30.00,SW,216,2.0,7.0,74,0.00,,,0.00,,2013-01-02 08:12:00,
2013-01-02 03:22:00,21.0,13.0,30.00,WNW,286,2.0,5.0,71,0.00,,,0.00,,2013-01-02 08:22:00,
2013-01-02 03:32:00,21.0,13.0,30.00,West,265,4.0,14.0,71,0.00,,,0.00,,2013-01-02 08:32:00,
2013-01-02 03:42:00,21.0,13.0,30.00,West,265,4.0,14.0,71,0.00,,,0.00,,2013-01-02 08:42:00,
2013-01-02 03:53:00,21.0,13.0,30.00,WSW,258,4.0,13.0,72,0.00,,,0.00,,2013-01-02 08:53:00,
2013-01-02 04:02:00,21.0,13.0,30.00,West,268,3.0,10.0,72,0.00,,,0.00,,2013-01-02 09:02:00,
2013-01-02 04:12:00,21.0,13.0,30.00,West,268,3.0,10.0,72,0.00,,,0.00,,2013-01-02 09:12:00,
2013-01-02 04:22:00,22.0,14.0,29.99,WSW,246,4.0,11.0,72,0.00,,,0.00,,2013-01-02 09:22:00,
2013-01-02 04:32:00,22.0,14.0,29.99,WSW,254,0.0,9.0,71,0.00,,,0.00,,2013-01-02 09:32:00,
2013-01-02 04:43:00,22.0,14.0,29.99,WSW,254,0.0,9.0,71,0.00,,,0.00,,2013-01-02 09:43:00,
2013-01-02 04:53:00,22.0,14.0,29.99,WSW,241,5.0,15.0,72,0.00,,,0.00,,2013-01-02 09:53:00,
2013-01-02 05:02:00,21.0,13.0,29.99,WSW,258,5.0,14.0,72,0.00,,,0.00,,2013-01-02 10:02:00,
2013-01-02 05:12:00,21.0,13.0,29.98,West,263,6.0,13.0,72,0.00,,,0.00,,2013-01-02 10:12:00,
2013-01-02 05:22:00,21.0,13.0,29.98,West,263,6.0,13.0,72,0.00,,,0.00,,2013-01-02 10:22:00,
2013-01-02 05:32:00,21.0,14.0,29.99,WSW,248,4.0,18.0,73,0.00,,,0.00,,2013-01-02 10:32:00,
2013-01-02 05:42:00,21.0,14.0,29.99,WSW,248,4.0,18.0,73,0.00,,,0.00,,2013-01-02 10:42:00,
2013-01-02 05:53:00,21.0,14.0,29.98,SW,231,5.0,17.0,73,0.00,,,0.00,,2013-01-02 10:53:00,
2013-01-02 06:02:00,21.0,14.0,29.99,West,269,7.0,15.0,73,0.00,,,0.00,,2013-01-02 11:02:00,
2013-01-02 06:12:00,21.0,14.0,29.99,West,269,7.0,15.0,73,0.00,,,0.00,,2013-01-02 11:12:00,
2013-01-02 06:22:00,21.0,13.0,29.98,SW,228,7.0,19.0,72,0.00,,,0.00,,2013-01-02 11:22:00,
2013-01-02 06:32:00,22.0,14.0,29.98,SW,234,3.0,19.0,72,0.00,,,0.00,,2013-01-02 11:32:00,
2013-01-02 06:42:00,22.0,14.0,29.98,SW,234,3.0,19.0,72,0.00,,,0.00,,2013-01-02 11:42:00,
2013-01-02 06:53:00,22.0,14.0,30.00,WSW,252,4.0,18.0,72,0.00,,,0.00,,2013-01-02 11:53:00,
2013-01-02 07:03:00,22.0,14.0,30.00,West,279,9.0,18.0,72,0.00,,,0.00,,2013-01-02 12:03:00,
2013-01-02 07:12:00,22.0,14.0,30.00,West,279,9.0,18.0,72,0.00,,,0.00,,2013-01-02 12:12:00,
2013-01-02 07:22:00,22.0,15.0,30.01,SW,232,10.0,15.0,73,0.00,,,0.00,,2013-01-02 12:22:00,
2013-01-02 07:33:00,22.0,15.0,30.01,WSW,244,7.0,15.0,74,0.00,,,0.00,,2013-01-02 12:33:00,
2013-01-02 07:42:00,22.0,15.0,30.01,WSW,244,7.0,15.0,74,0.00,,,0.00,,2013-01-02 12:42:00,
2013-01-02 07:53:00,22.0,15.0,30.01,SW,227,5.0,19.0,74,0.00,,,0.00,,2013-01-02 12:53:00,
2013-01-02 08:02:00,22.0,15.0,30.01,WSW,244,12.0,18.0,75,0.00,,,0.00,,2013-01-02 13:02:00,
2013-01-02 08:12:00,22.0,15.0,30.01,WSW,244,12.0,18.0,75,0.00,,,0.00,,2013-01-02 13:12:00,
2013-01-02 08:22:00,22.0,15.0,30.02,WSW,251,8.0,18.0,75,0.00,,,0.00,,2013-01-02 13:22:00,
2013-01-02 08:33:00,22.0,15.0,30.01,West,262,9.0,19.0,75,0.00,,,0.00,,2013-01-02 13:33:00,
2013-01-02 08:43:00,22.0,15.0,30.01,West,262,9.0,19.0,75,0.00,,,0.00,,2013-01-02 13:43:00,
2013-01-02 08:52:00,21.0,14.0,30.02,WSW,252,11.0,16.0,75,0.00,,,0.00,,2013-01-02 13:52:00,
2013-01-02 09:02:00,21.0,15.0,30.02,SSW,209,7.0,15.0,76,0.00,,,0.00,,2013-01-02 14:02:00,
2013-01-02 09:12:00,21.0,15.0,30.02,SSW,209,7.0,15.0,76,0.00,,,0.00,,2013-01-02 14:12:00,
2013-01-02 09:22:00,22.0,16.0,30.03,SW,225,6.0,15.0,76,0.00,,,0.00,,2013-01-02 14:22:00,
2013-01-02 09:33:00,22.0,16.0,30.03,SW,225,6.0,15.0,76,0.00,,,0.00,,2013-01-02 14:33:00,
2013-01-02 09:43:00,22.0,16.0,30.03,SW,225,6.0,15.0,76,0.00,,,0.00,,2013-01-02 14:43:00,
2013-01-02 09:53:00,22.0,15.0,30.04,SW,224,9.0,23.0,75,0.00,,,0.00,,2013-01-02 14:53:00,
2013-01-02 10:03:00,23.0,17.0,30.05,SW,223,6.0,15.0,76,0.00,,,0.00,,2013-01-02 15:03:00,
2013-01-02 10:12:00,23.0,17.0,30.05,SW,223,6.0,15.0,76,0.00,,,0.00,,2013-01-02 15:12:00,
2013-01-02 10:23:00,23.0,17.0,30.05,West,275,5.0,14.0,76,0.00,,,0.00,,2013-01-02 15:23:00,
2013-01-02 10:33:00,23.0,16.0,30.05,WSW,238,6.0,12.0,75,0.00,,,0.00,,2013-01-02 15:33:00,
2013-01-02 10:43:00,23.0,16.0,30.05,WSW,238,6.0,12.0,75,0.00,,,0.00,,2013-01-02 15:43:00,
2013-01-02 10:53:00,23.0,16.0,30.06,SW,223,2.0,15.0,75,0.00,,,0.00,,2013-01-02 15:53:00,
2013-01-02 11:03:00,24.0,17.0,30.06,SW,227,2.0,11.0,75,0.00,,,0.00,,2013-01-02 16:03:00,
2013-01-02 11:13:00,24.0,17.0,30.06,SW,227,2.0,11.0,75,0.00,,,0.00,,2013-01-02 16:13:00,
2013-01-02 11:22:00,24.0,17.0,30.06,West,265,5.0,10.0,74,0.00,,,0.00,,2013-01-02 16:22:00,
2013-01-02 11:33:00,24.0,17.0,30.06,SSW,210,1.0,10.0,74,0.00,,,0.00,,2013-01-02 16:33:00,
2013-01-02 11:43:00,24.0,17.0,30.06,SSW,210,1.0,10.0,74,0.00,,,0.00,,2013-01-02 16:43:00,
2013-01-02 11:53:00,25.0,18.0,30.06,West,276,5.0,12.0,73,0.00,,,0.00,,2013-01-02 16:53:00,
2013-01-02 12:03:00,25.0,18.0,30.06,SW,219,2.0,13.0,73,0.00,,,0.00,,2013-01-02 17:03:00,
2013-01-02 12:13:00,25.0,18.0,30.06,SW,219,2.0,13.0,73,0.00,,,0.00,,2013-01-02 17:13:00,
2013-01-02 12:23:00,26.0,18.0,30.06,WSW,239,4.0,11.0,72,0.00,,,0.00,,2013-01-02 17:23:00,
2013-01-02 12:33:00,26.0,18.0,30.06,West,279,4.0,7.0,71,0.00,,,0.00,,2013-01-02 17:33:00,
2013-01-02 12:43:00,26.0,18.0,30.06,West,279,4.0,7.0,71,0.00,,,0.00,,2013-01-02 17:43:00,
2013-01-02 12:53:00,27.0,19.0,30.07,West,276,3.0,14.0,70,0.00,,,0.00,,2013-01-02 17:53:00,
2013-01-02 13:03:00,27.0,18.0,30.07,NW,306,6.0,14.0,69,0.00,,,0.00,,2013-01-02 18:03:00,
2013-01-02 13:13:00,27.0,18.0,30.07,NW,306,6.0,14.0,69,0.00,,,0.00,,2013-01-02 18:13:00,
2013-01-02 13:23:00,27.0,19.0,30.08,WSW,255,5.0,10.0,70,0.00,,,0.00,,2013-01-02 18:23:00,
2013-01-02 13:33:00,27.0,19.0,30.08,WNW,300,4.0,11.0,71,0.00,,,0.00,,2013-01-02 18:33:00,
2013-01-02 13:43:00,27.0,19.0,30.08,WNW,300,4.0,11.0,71,0.00,,,0.00,,2013-01-02 18:43:00,
2013-01-02 13:53:00,27.0,19.0,30.08,WNW,284,5.0,12.0,71,0.00,,,0.00,,2013-01-02 18:53:00,
2013-01-02 14:03:00,27.0,19.0,30.09,WNW,290,2.0,12.0,71,0.00,,,0.00,,2013-01-02 19:03:00,
2013-01-02 14:13:00,27.0,19.0,30.09,WNW,290,2.0,12.0,71,0.00,,,0.00,,2013-01-02 19:13:00,
2013-01-02 14:23:00,27.0,19.0,30.09,WNW,292,3.0,15.0,70,0.00,,,0.00,,2013-01-02 19:23:00,
2013-01-02 14:33:00,27.0,19.0,30.09,West,261,4.0,11.0,71,0.00,,,0.00,,2013-01-02 19:33:00,
2013-01-02 14:43:00,27.0,19.0,30.09,West,261,4.0,11.0,71,0.00,,,0.00,,2013-01-02 19:43:00,
2013-01-02 14:53:00,27.0,19.0,30.09,West,278,0.0,10.0,71,0.00,,,0.00,,2013-01-02 19:53:00,
2013-01-02 15:03:00,27.0,19.0,30.10,West,260,2.0,11.0,70,0.00,,,0.00,,2013-01-02 20:03:00,
2013-01-02 15:12:00,27.0,19.0,30.10,West,260,2.0,11.0,70,0.00,,,0.00,,2013-01-02 20:12:00,
2013-01-02 15:23:00,27.0,18.0,30.11,WNW,286,5.0,13.0,69,0.00,,,0.00,,2013-01-02 20:23:00,
2013-01-02 15:33:00,26.0,17.0,30.11,West,261,4.0,13.0,69,0.00,,,0.00,,2013-01-02 20:33:00,
2013-01-02 15:42:00,26.0,17.0,30.11,West,261,4.0,13.0,69,0.00,,,0.00,,2013-01-02 20:42:00,
2013-01-02 15:53:00,26.0,17.0,30.12,West,259,3.0,9.0,69,0.00,,,0.00,,2013-01-02 20:53:00,
2013-01-02 16:03:00,26.0,18.0,30.12,West,275,4.0,7.0,70,0.00,,,0.00,,2013-01-02 21:03:00,
2013-01-02 16:13:00,26.0,18.0,30.12,West,275,4.0,7.0,70,0.00,,,0.00,,2013-01-02 21:13:00,
2013-01-02 16:22:00,26.0,17.0,30.12,West,265,1.0,10.0,68,0.00,,,0.00,,2013-01-02 21:22:00,
2013-01-02 16:33:00,26.0,17.0,30.12,WSW,249,2.0,9.0,69,0.00,,,0.00,,2013-01-02 21:33:00,
2013-01-02 16:43:00,26.0,17.0,30.12,WSW,249,2.0,9.0,69,0.00,,,0.00,,2013-01-02 21:43:00,
2013-01-02 16:53:00,25.0,17.0,30.12,WSW,250,2.0,6.0,71,0.00,,,0.00,,2013-01-02 21:53:00,
2013-01-02 17:03:00,25.0,17.0,30.13,WNW,286,2.0,6.0,71,0.00,,,0.00,,2013-01-02 22:03:00,
2013-01-02 17:12:00,25.0,17.0,30.13,WNW,286,2.0,6.0,71,0.00,,,0.00,,2013-01-02 22:12:00,
2013-01-02 17:22:00,24.0,16.0,30.14,SW,234,0.0,4.0,72,0.00,,,0.00,,2013-01-02 22:22:00,
2013-01-02 17:32:00,24.0,16.0,30.14,West,265,0.0,2.0,72,0.00,,,0.00,,2013-01-02 22:32:00,
2013-01-02 17:42:00,24.0,16.0,30.14,West,265,0.0,2.0,72,0.00,,,0.00,,2013-01-02 22:42:00,
2013-01-02 17:53:00,23.0,16.0,30.14,WSW,240,1.0,4.0,73,0.00,,,0.00,,2013-01-02 22:53:00,
2013-01-02 18:03:00,23.0,16.0,30.14,WSW,252,1.0,6.0,73,0.00,,,0.00,,2013-01-02 23:03:00,
2013-01-02 18:13:00,23.0,15.0,30.14,SW,230,1.0,8.0,72,0.00,,,0.00,,2013-01-02 23:13:00,
2013-01-02 18:23:00,23.0,15.0,30.14,SW,230,1.0,8.0,72,0.00,,,0.00,,2013-01-02 23:23:00,
2013-01-02 18:33:00,23.0,16.0,30.14,WSW,252,1.0,10.0,73,0.00,,,0.00,,2013-01-02 23:33:00,
2013-01-02 18:42:00,23.0,16.0,30.14,WSW,252,1.0,10.0,73,0.00,,,0.00,,2013-01-02 23:42:00,
2013-01-02 18:53:00,23.0,16.0,30.14,WSW,252,1.0,5.0,73,0.00,,,0.00,,2013-01-02 23:53:00,
2013-01-02 19:02:00,23.0,16.0,30.14,WSW,256,0.0,6.0,73,0.00,,,0.00,,2013-01-03 00:02:00,
2013-01-02 19:12:00,23.0,16.0,30.14,WSW,256,0.0,6.0,73,0.00,,,0.00,,2013-01-03 00:12:00,
2013-01-02 19:22:00,23.0,15.0,30.14,SW,225,2.0,7.0,72,0.00,,,0.00,,2013-01-03 00:22:00,
2013-01-02 19:38:00,23.0,15.0,30.14,West,275,2.0,7.0,72,0.00,,,0.00,,2013-01-03 00:38:00,
2013-01-02 19:53:00,23.0,16.0,30.14,West,268,4.0,10.0,73,0.00,,,0.00,,2013-01-03 00:53:00,
2013-01-02 20:02:00,23.0,16.0,30.14,WSW,252,3.0,10.0,74,0.00,,,0.00,,2013-01-03 01:02:00,
2013-01-02 20:12:00,23.0,16.0,30.14,WSW,252,3.0,10.0,74,0.00,,,0.00,,2013-01-03 01:12:00,
2013-01-02 20:22:00,23.0,16.0,30.15,WSW,248,1.0,8.0,74,0.00,,,0.00,,2013-01-03 01:22:00,
2013-01-02 20:32:00,23.0,16.0,30.15,West,262,2.0,9.0,74,0.00,,,0.00,,2013-01-03 01:32:00,
2013-01-02 20:42:00,23.0,16.0,30.15,West,262,2.0,9.0,74,0.00,,,0.00,,2013-01-03 01:42:00,
2013-01-02 20:53:00,23.0,16.0,30.15,SSW,212,2.0,7.0,75,0.00,,,0.00,,2013-01-03 01:53:00,
2013-01-02 21:02:00,23.0,16.0,30.15,West,261,2.0,7.0,75,0.00,,,0.00,,2013-01-03 02:02:00,
2013-01-02 21:12:00,23.0,16.0,30.15,West,261,2.0,7.0,75,0.00,,,0.00,,2013-01-03 02:12:00,
2013-01-02 21:23:00,23.0,16.0,30.15,West,265,1.0,9.0,75,0.00,,,0.00,,2013-01-03 02:23:00,
2013-01-02 21:33:00,23.0,16.0,30.15,West,269,4.0,9.0,75,0.00,,,0.00,,2013-01-03 02:33:00,
2013-01-02 21:42:00,23.0,16.0,30.15,West,269,4.0,9.0,75,0.00,,,0.00,,2013-01-03 02:42:00,
2013-01-02 21:52:00,23.0,16.0,30.15,West,269,4.0,9.0,75,0.00,,,0.00,,2013-01-03 02:52:00,
2013-01-02 22:02:00,22.0,15.0,30.17,WSW,253,2.0,7.0,75,0.00,,,0.00,,2013-01-03 03:02:00,
2013-01-02 22:12:00,22.0,16.0,30.17,West,263,0.0,5.0,76,0.00,,,0.00,,2013-01-03 03:12:00,
2013-01-02 22:22:00,22.0,16.0,30.17,West,263,0.0,5.0,76,0.00,,,0.00,,2013-01-03 03:22:00,
2013-01-02 22:46:00,22.0,16.0,30.17,WNW,286,2.0,7.0,76,0.00,,,0.00,,2013-01-03 03:46:00,
2013-01-02 22:53:00,21.0,15.0,30.17,WSW,252,0.0,5.0,76,0.00,,,0.00,,2013-01-03 03:53:00,
2013-01-02 23:02:00,21.0,15.0,30.17,WSW,249,0.0,5.0,76,0.00,,,0.00,,2013-01-03 04:02:00,
2013-01-02 23:12:00,21.0,15.0,30.17,WSW,249,0.0,5.0,76,0.00,,,0.00,,2013-01-03 04:12:00,
2013-01-02 23:22:00,21.0,15.0,30.17,SW,227,2.0,6.0,77,0.00,,,0.00,,2013-01-03 04:22:00,
2013-01-02 23:32:00,20.0,14.0,30.17,SW,232,3.0,6.0,77,0.00,,,0.00,,2013-01-03 04:32:00,
2013-01-02 23:42:00,20.0,14.0,30.17,SW,232,3.0,6.0,77,0.00,,,0.00,,2013-01-03 04:42:00,
2013-01-02 23:53:00,20.0,14.0,30.17,SW,226,0.0,5.0,78,0.00,,,0.00,,2013-01-03 04:53:00,